Location: Unspecified
(0.0000°N, 0.0000°E)
Time: 13:54:30
(UTC+00:00)

LightSail 2 - Pass Details

Date: 21 November 2019
Orbit: 696 x 730 km, 24.0° (Epoch: 08 December)

Event Time Altitude Azimuth Distance (km) Brightness Sun altitude
Rises 18:28:24 0° 241° (WSW) 3,072 10.5 -10.0°
Reaches altitude 10° 18:30:51 10° 238° (WSW) 2,149 9.1 -10.6°
Maximum altitude 18:35:53 71° 154° (SSE) 731 5.2 -11.7°
Enters shadow 18:39:38 18° 73° (ENE) 1,670 6.4 -12.6°
